Regional Weather Roundup
Issued by NWS

Home | Current Version | Previous Version | Graphics & Text | Print | Product List | Glossary On
Versions: 1 2 3 4 5 6 7 8 9 10 11 12 13 14 15 16 17 18 19 20 21 22 23 24 25 26 27 28 29 30 31 32 33 34 35 36 37 38 39 40 41 42 43 44 45 46 47 48 49 50
225
ASUS43 KLOT 262003
RWRIL

ILLINOIS REGIONAL WEATHER ROUNDUP
NATIONAL WEATHER SERVICE CHICAGO/ROMEOVILLE IL
300 PM CDT SUN MAR 26 2017

NOTE: "FAIR" INDICATES FEW OR NO CLOUDS BELOW 12,000 FEET WITH NO
SIGNIFICANT WEATHER AND/OR OBSTRUCTIONS TO VISIBILITY.

* THESE STATIONS ARE NOT UNDER NWS QUALITY CONTROL. THEY ALSO MAY NOT
  REPORT WEATHER SUCH AS PRECIPITATION OR FOG.

ILZ001-002-007-009-015-016-024-262100-
NORTHWEST ILLINOIS

CITY           SKY/WX    TMP DP  RH WIND       PRES   REMARKS
MOLINE         FOG       52  49  89 SW9       29.82S VSB 1
STERLING*      LGT RAIN  55  52  89 SW8       29.82S
SAVANNA*       CLOUDY    55  53  95 CALM      29.81S FOG
$$

ILZ003-004-008-010-011-017-018-262100-
NORTH CENTRAL ILLINOIS

CITY           SKY/WX    TMP DP  RH WIND       PRES   REMARKS
ROCKFORD       CLOUDY    58  51  78 SW12      29.82S
FREEPORT*      CLOUDY    52  51  98 CALM      29.82F FOG
ROCHELLE*      CLOUDY    54  52  95 SW10      29.82S
DE KALB*       CLOUDY    55  51  86 SW10      29.82S
$$

ILZ005-006-012>014-019>023-262100-
NORTHEAST ILLINOIS

CITY           SKY/WX    TMP DP  RH WIND       PRES   REMARKS
CHICAGO-OHARE  CLOUDY    62  51  67 W9        29.80S
CHICAGO-MIDWAY CLOUDY    61  50  67 SW14      29.81S
AURORA         CLOUDY    57  51  80 S13       29.82S
LANSING*       PTSUNNY   63  55  75 SW16      29.82S
WAUKEGAN       FOG       49  49 100 NE3       29.81S VSB 1
DUPAGE AIRPORT CLOUDY    60  54  80 SW10      29.80F
WHEELING       CLOUDY    61  55  81 SW8       29.82S
MORRIS*        CLOUDY    56  52  85 SW10      29.82S
$$

LMZ740>746-262100-
SOUTHERN LAKE MICHIGAN

STATION/POSITION SKY/WX   TEMP    WIND        PRES    VSBY  WAVE
                          AIR SEA DIR/SP/G                  HT/PER
                          (F)     (DEG/KT/KT) (MB)    (MI)  (FT/S)
HARRISON CRIB              55     130/  3/  4   N/A
BURNHAM HARBOR             60     240/  7/ 10   N/A
CALUMET HARBOR             60     210/  6/ 10 1009.0F
BURNS HARBOR               59     210/ 14/ 22 1010.2F
MICHIGAN CITY              54     210/  4/  5   N/A
$$

ILZ025>027-034>036-040-047-049-050-058-095>099-262100-
WEST-CENTRAL ILLINOIS

CITY           SKY/WX    TMP DP  RH WIND       PRES   REMARKS
QUINCY         CLOUDY    50  46  86 W14       29.88S
GALESBURG*     CLOUDY    49  47  93 W6        29.84S
MACOMB*        CLOUDY    50  47  90 W13       29.88S
JACKSONVILLE*  CLOUDY    55  49  81 SW12      29.88R
PITTSFIELD*    CLOUDY    54  48  82 W10       29.90R
$$

ILZ028>032-037-038-041>044-048-051>054-059>061-262100-
CENTRAL ILLINOIS

CITY           SKY/WX    TMP DP  RH WIND       PRES   REMARKS
PONTIAC        CLOUDY    56  54  92 SW13      29.85S
BLOOMINGTON    CLOUDY    53  50  89 SW15      29.86R
DECATUR        CLOUDY    56  48  74 SW14      29.87S
PEORIA         CLOUDY    53  49  86 W9        29.84F
SPRINGFIELD    CLOUDY    56  50  80 SW9       29.87S
TAYLORVILLE    NOT AVBL
$$

ILZ033-039-045-046-055>057-062-063-262100-
EAST-CENTRAL ILLINOIS

CITY           SKY/WX    TMP DP  RH WIND       PRES   REMARKS
CHAMPAIGN      MOSUNNY   62  46  55 SW16G24   29.85F
RANTOUL*       CLOUDY    64  51  64 SW20      29.85S
MATTOON        CLOUDY    59  49  69 S12       29.86F
PARIS*         CLOUDY    59  52  76 SW13      29.87S
$$

ILZ079-100>102-262100-
SOUTHWEST ILLINOIS

CITY           SKY/WX    TMP DP  RH WIND       PRES   REMARKS
ALTON          CLOUDY    57  50  77 S8        29.90S
BELLEVILLE     PTSUNNY   59  51  76 SW10      29.90S
CAHOKIA*       CLOUDY    59  49  69 SW8       29.91R
SPARTA*        CLOUDY    60  50  70 SW7       29.92S
$$

ILZ064>066-069>071-074>076-080>082-084>086-088>090-092>094-262100-
SOUTH-CENTRAL ILLINOIS

CITY           SKY/WX    TMP DP  RH WIND       PRES   REMARKS
CARBONDALE     CLOUDY    59  49  69 SW7       29.93S
CAIRO*         CLOUDY    62  51  65 SW10      29.94S
EFFINGHAM*     CLOUDY    60  51  71 SW13G18   29.90F
MARION         CLOUDY    63  48  59 SW9       29.94S
MT. VERNON     CLOUDY    60  49  66 SW9       29.91S
CENTRALIA*     CLOUDY    59  52  76 SW10      29.90R
SALEM*         CLOUDY    59  49  69 W10       29.90S
$$

ILZ067-068-072-073-078-083-087-091-262100-
SOUTHEAST ILLINOIS

CITY           SKY/WX    TMP DP  RH WIND       PRES   REMARKS
LAWRENCEVILLE  LGT RAIN  61  50  67 SW17      29.89S
FLORA*         CLOUDY    61  49  65 SW10      29.90S
FAIRFIELD*     CLOUDY    60  48  64 SW10      29.90S
HARRISBURG*    CLOUDY    62  49  62 SW15      29.92F
ROBINSON*      CLOUDY    59  49  70 SW14      29.89S
CARMI*         PTSUNNY   64  52  65 SW15      29.91S
$$

ABBREVIATIONS USED IN REMARKS
   TC - TEMPERATURE IN CELSIUS
  WCI - WIND CHILL INDEX
   HX - HEAT INDEX
  VSB - VISIBILITY
$$





USA.gov is the U.S. government's official web portal to all federal, state and local government web resources and services.